Weather History for Christchurch, New Zealand

Change the Weather History Date:

Tuesday, January 7, 2014

  Actual Average Record
Temperature  
Mean Temperature 65 °F -  
Max Temperature 75 °F 67 °F 89 °F (2009)
Min Temperature 55 °F 51 °F 39 °F (2006)
Growing Degree Days 15 (Base 50)    
Moisture  
Dew Point 52 °F    
Average Humidity 72    
Maximum Humidity 100    
Minimum Humidity 31    
Precipitation  
Precipitation 0.00 in - - ()
Sea Level Pressure  
Sea Level Pressure 29.50 in    
Wind  
Wind Speed 9 mph ()    
Max Wind Speed 21 mph    
Max Gust Speed 20 mph    
Visibility 6.1 miles    
Events Rain    
Averages and records for this station are not official NWS values.
T = Trace of Precipitation, MM = Missing Value Source: Averaged Metar Reports

Daily Weather History Graph

Daily Weather History Graph

Search for Another Location

Airport:

Trip Planner

Search our weather history database for the weather conditions in past years. The results will help you decide how hot, cold, wet, or windy it might be!

Date:

Astronomy

Jan. 07, 2014 Rise Set
Actual Time 5:58 AM NZDT 9:13 PM NZDT
Civil Twilight 5:22 AM NZDT 9:48 PM NZDT
Nautical Twilight 4:37 AM NZDT 10:33 PM NZDT
Astronomical Twilight 3:41 AM NZDT 11:29 PM NZDT
Moon 12:41 PM NZDT (1/7) No Moon Set
Length of Visible Light 16h 25m
Length of Day
15h 15m
Waxing Crescent, 37% of the Moon is Illuminated
Jan 7
Waxing Crescent
Jan 8
First Quarter
Jan 16
Full
Jan 24
Last Quarter
Jan 31
New

Hourly Weather History & Observations

Time (NZDT) Temp. Dew Point Humidity Pressure Visibility Wind Dir Wind Speed Gust Speed Precip Events Conditions
12:00 AM 59.0 °F 53.6 °F 82% 29.74 in 6.2 mi East 11.5 mph - N/A   Partly Cloudy
12:30 AM 57.2 °F 53.6 °F 88% 29.74 in 6.2 mi East 13.8 mph - N/A   Unknown
1:00 AM 57.2 °F 53.6 °F 88% 29.74 in 6.2 mi East 10.4 mph - N/A   Unknown
1:30 AM 57.2 °F 53.6 °F 88% 29.71 in 6.2 mi East 12.7 mph - N/A   Unknown
2:00 AM 57.2 °F 53.6 °F 88% 29.71 in 6.2 mi East 10.4 mph - N/A   Unknown
2:30 AM 57.2 °F 53.6 °F 88% 29.71 in 6.2 mi East 6.9 mph - N/A   Unknown
3:00 AM 57.2 °F 53.6 °F 88% 29.68 in 6.2 mi ESE 6.9 mph - N/A   Unknown
3:30 AM 57.2 °F 53.6 °F 88% 29.65 in 6.2 mi ESE 3.5 mph - N/A   Unknown
4:00 AM 55.4 °F 53.6 °F 94% 29.65 in 6.2 mi North 2.3 mph - N/A   Partly Cloudy
4:30 AM 55.4 °F 53.6 °F 94% 29.65 in 6.2 mi WNW 2.3 mph - N/A   Mostly Cloudy
5:00 AM 55.4 °F 53.6 °F 94% 29.68 in 6.2 mi West 4.6 mph - N/A   Partly Cloudy
5:30 AM 55.4 °F 55.4 °F 100% 29.65 in 6.2 mi SSW 4.6 mph - N/A Rain Light Rain
6:00 AM 55.4 °F 55.4 °F 100% 29.65 in 6.2 mi SSW 2.3 mph - N/A Rain Light Rain
6:30 AM 57.2 °F 55.4 °F 94% 29.65 in 6.2 mi South 3.5 mph - N/A   Overcast
7:00 AM 57.2 °F 55.4 °F 94% 29.65 in 6.2 mi SE 2.3 mph - N/A Rain Light Rain Showers
7:30 AM 57.2 °F 55.4 °F 94% 29.65 in 6.2 mi SE 3.5 mph - N/A Rain Light Rain
8:00 AM 57.2 °F 57.2 °F 100% 29.65 in 6.2 mi North 3.5 mph - N/A   Scattered Clouds
8:30 AM 57.2 °F 57.2 °F 100% 29.65 in 6.2 mi North 3.5 mph - N/A   Partly Cloudy
9:00 AM 57.2 °F 57.2 °F 100% 29.62 in 6.2 mi NE 3.5 mph - N/A   Unknown
9:30 AM 57.2 °F 57.2 °F 100% 29.59 in 6.2 mi ENE 5.8 mph - N/A   Overcast
10:00 AM 57.2 °F 57.2 °F 100% 29.56 in 3.7 mi NE 6.9 mph - N/A   Mostly Cloudy
10:30 AM 59.0 °F 59.0 °F 100% 29.56 in 4.3 mi NE 9.2 mph - N/A   Overcast
11:00 AM 62.6 °F 55.4 °F 77% 29.53 in 6.2 mi ENE 15.0 mph - N/A   Mostly Cloudy
11:30 AM 66.2 °F 57.2 °F 73% 29.50 in 6.2 mi ENE 13.8 mph - N/A   Mostly Cloudy
12:00 PM 66.2 °F 53.6 °F 64% 29.47 in 6.2 mi ENE 12.7 mph - N/A   Scattered Clouds
12:30 PM 68.0 °F 55.4 °F 64% 29.47 in 6.2 mi ENE 12.7 mph - N/A   Overcast
1:00 PM 68.0 °F 50.0 °F 52% 29.44 in 6.2 mi ENE 16.1 mph - N/A   Scattered Clouds
1:30 PM 68.0 °F 50.0 °F 52% 29.44 in 6.2 mi ENE 15.0 mph - N/A   Mostly Cloudy
2:00 PM 69.8 °F 50.0 °F 49% 29.42 in 6.2 mi East 15.0 mph - N/A   Mostly Cloudy
2:30 PM 71.6 °F 51.8 °F 50% 29.42 in 6.2 mi ENE 19.6 mph - N/A   Unknown
3:00 PM 69.8 °F 55.4 °F 60% 29.39 in 6.2 mi ENE 20.7 mph - N/A   Mostly Cloudy
3:30 PM 71.6 °F 53.6 °F 53% 29.36 in 6.2 mi ENE 20.7 mph - N/A   Partly Cloudy
4:00 PM 71.6 °F 55.4 °F 57% 29.33 in 6.2 mi NE 18.4 mph - N/A   Unknown
4:30 PM 71.6 °F 53.6 °F 53% 29.33 in 6.2 mi NNE 16.1 mph - N/A   Unknown
5:00 PM 75.2 °F 53.6 °F 47% 29.30 in 6.2 mi North 15.0 mph - N/A   Unknown
5:30 PM 75.2 °F 51.8 °F 44% 29.30 in 6.2 mi North 10.4 mph - N/A   Unknown
6:00 PM 75.2 °F 50.0 °F 41% 29.30 in 6.2 mi NW 15.0 mph - N/A   Partly Cloudy
6:30 PM 73.4 °F 48.2 °F 41% 29.30 in 6.2 mi North 11.5 mph - N/A   Unknown
7:00 PM 75.2 °F 48.2 °F 38% 29.30 in 6.2 mi NW 5.8 mph - N/A   Partly Cloudy
7:30 PM 75.2 °F 44.6 °F 34% 29.30 in 6.2 mi NW 16.1 mph - N/A   Unknown
8:00 PM 73.4 °F 42.8 °F 33% 29.30 in 6.2 mi WNW 18.4 mph - N/A   Unknown
8:30 PM 69.8 °F 37.4 °F 31% 29.30 in 6.2 mi WNW 19.6 mph - N/A   Unknown
9:00 PM 68.0 °F 37.4 °F 33% 29.33 in 6.2 mi WNW 18.4 mph - N/A   Unknown
9:30 PM 66.2 °F 39.2 °F 37% 29.33 in 6.2 mi WSW 8.1 mph 19.6 mph N/A   Unknown
10:00 PM 60.8 °F 53.6 °F 77% 29.33 in 6.2 mi SSW 10.4 mph - N/A   Unknown
10:30 PM 57.2 °F 53.6 °F 88% 29.36 in 6.2 mi South 5.8 mph - N/A   Unknown
11:00 PM 57.2 °F 51.8 °F 82% 29.36 in 6.2 mi SSW 4.6 mph - N/A   Unknown
11:30 PM 60.8 °F 44.6 °F 55% 29.36 in 6.2 mi WNW 6.9 mph - N/A   Unknown